Location: Naloco
(16.5478°S, 37.1017°E)
Time: 02:32:56
(UTC+00:00)

Cosmos 1452 Rocket - Pass Details

Date: 13 August 2020
Orbit: 767 x 774 km, 74.1° (Epoch: 23 September)

Event Time Altitude Azimuth Distance (km) Brightness Sun altitude
Rises 15:33:34 0° 350° (N) 3,223 7.1 -3.4°
Reaches altitude 10° 15:35:56 10° 351° (N) 2,303 6.3 -4.0°
Maximum altitude 15:41:10 80° 78° (ENE) 790 3.5 -5.2°
Drops below altitude 10° 15:46:27 10° 164° (SSE) 2,330 5.7 -6.4°
Sets 15:48:51 0° 164° (SSE) 3,263 6.5 -7.0°
